Find Starlink 4482

NORAD ID: 53530 Int'l Des: 2022-101 Owner: SPXS Country: US Constellation: starlink operational
LEOCIRCULAR

Live-Position

3D-Globus wird geladen...

Über Starlink 4482

Beschreibung wird geladen...

Nächste Überflüge

Passes for default location (London). Set your location on the main map for personalized predictions.

Höhenverlauf

Loading altitude history...

Zweizeiliger Elementsatz

1 53530U 22101D 26123.43499485 .00000394 00000-0 42831-4 0 9990
2 53530 53.2161 188.5778 0001005 88.8567 271.2541 15.08834657204429
Epoch: 3. Mai 2026 • Age: 13 hours

Aktueller Status

Höhe 545.5 km
Geschwindigkeit 7.60 km/s
Subsatellitenpunkt 52.42°N, 75.23°E
Startdatum 19. Aug. 2022
Alter 3.7 years
Typ internet

Technische Details

Klassifizierung Payload
Masse 300.00 kg
Trockenmasse 290.00 kg
Gesamtmasse 300.00 kg
Länge 0.20 m
Durchmesser 2.80 m
Spannweite 9.00 m
Form Box + pan
Hersteller SPXS
Bus-Typ Starlink
Phasenstatus In Orbit
Besitzer/Staat SPXS/US

Most Searched